Skip Page Navigation
NASA JPL Caltech
NASA Logo - Jet Propulsion Laboratory + View the NASA Portal
+ Center for Near-Earth Object Studies
JPL Home Earth Solar System Stars & Galaxies Technology
JPL Solar System Dynamics
BODIES ORBITS EPHEMERIDES TOOLS PHYSICAL DATA DISCOVERY FAQ SITE MAP
JPL Small-Body Database Browser
Search: [ help ]  
351606 (2005 VG114)
Classification: Main-belt Asteroid          SPK-ID: 2351606
Ephemeris | Orbit Diagram | Orbital Elements | Mission Design | Physical Parameters | Discovery Circumstances ]

[ show orbit diagram ]
Orbital Elements at Epoch 2459000.5 (2020-May-31.0) TDB
Reference: JPL 16 (heliocentric ecliptic J2000)
 Element Value Uncertainty (1-sigma)   Units 
e .1652392538241988 5.2459e-08  
a 2.25405641981596 1.4529e-08 au
q 1.881597818927926 1.2033e-07 au
i 7.460808286510647 5.578e-06 deg
node 59.23529944639298 4.0944e-05 deg
peri 266.8750507199549 4.3979e-05 deg
M 184.383011468654 1.6648e-05 deg
tp 2459603.489327250904
(2022-Jan-23.98932725)
5.8524e-05 TDB
period 1236.077213404552
3.38
1.1952e-05
3.272e-08
d
yr
n .2912439417991088 2.816e-09 deg/d
Q 2.626515020703994 1.693e-08 au
  Orbit Determination Parameters
   # obs. used (total)      231  
   data-arc span      6761 days (18.51 yr)  
   first obs. used      2001-07-24  
   last obs. used      2020-01-27  
   planetary ephem.      DE431  
   SB-pert. ephem.      SB431-N16  
   condition code      0  
   norm. resid. RMS      .66007  
   source      ORB  
   producer      Otto Matic  
   solution date      2020-Feb-25 23:55:53  

Additional Information
 Earth MOID = .88794 au 
 Jupiter MOID = 2.71398 au 
 T_jup = 3.596 
[ show covariance matrix ]

Ephemeris | Orbit Diagram | Orbital Elements | Mission Design | Physical Parameters | Discovery Circumstances ]

Physical Parameter Table
Parameter Symbol Value Units Sigma Reference Notes
absolute magnitude H 17.0   n/a MPO455544  

351606 (2005 VG114)          Discovered 2005-Nov-10 by Mt. Lemmon Survey at Mount Lemmon
Reference: 20130127/Numbers.arcLast Updated: 2013-01-31
Ephemeris | Orbit Diagram | Orbital Elements | Mission Design | Physical Parameters | Discovery Circumstances ]
ABOUT SSD CREDITS/AWARDS PRIVACY/COPYRIGHT GLOSSARY LINKS
FirstGov 2020-Jul-14 14:25 UT
(server date/time)  
NASA Home Page
Site Manager:   Ryan S. Park
Webmaster  Alan B. Chamberlin